Theta_e
318 317 317 317 317 318 319 319 319 319 319 320 320 319 317 316 315 309 301 307 310 320 315 307 306 306 304 302 305 307 300 301 305 307 310 317 315 319 322 319 320 321 321 319 314
314 314 315 315 315 315 316 317 317 318 318 319 319 319 317 315 307 301 311 315 316 321 305 302 300 301 298 299 301 297 295 298 304 308 307 310 311 315 315 315 315 318 321 312 312
311 311 311 311 311 312 313 313 314 316 317 318 318 317 316 313 299 298 309 314 314 320 305 303 301 299 296 298 298 298 294 299 301 303 304 303 306 312 312 311 316 316 319 320 312
308 308 308 309 309 310 311 311 312 312 314 316 317 317 313 307 293 300 313 317 322 311 302 300 299 296 294 294 297 292 297 298 300 301 300 300 305 305 308 312 317 318 321 321 315
307 307 307 307 308 308 309 309 310 310 312 314 316 314 309 297 298 307 320 319 313 305 300 299 296 296 293 295 296 294 295 297 298 298 298 300 299 301 302 310 313 314 315 314 313
306 306 306 306 307 308 308 309 310 311 311 313 315 312 303 293 301 306 308 309 307 303 299 299 297 298 295 295 294 297 297 297 298 297 298 296 297 298 300 305 305 307 307 308 309
304 304 304 304 305 306 306 308 309 309 312 312 315 310 300 299 302 304 303 303 304 302 298 300 300 297 297 294 298 297 293 295 296 297 297 300 295 296 301 302 302 304 305 307 308
303 303 302 303 303 304 305 307 308 310 313 314 312 308 297 302 303 299 300 298 301 302 300 301 301 298 296 298 296 293 294 289 296 297 297 297 291 299 305 303 302 302 305 308 309
301 301 301 301 301 303 303 306 309 311 309 310 307 303 296 299 293 298 299 296 297 299 299 298 299 294 295 290 288 290 285 289 292 298 296 295 293 299 304 303 303 304 305 306 307
301 301 301 301 301 301 304 309 309 309 309 309 301 294 297 295 295 295 298 297 294 295 293 293 293 290 290 289 282 286 286 289 289 294 295 293 293 296 299 299 299 301 302 303 304
301 301 301 300 300 301 303 302 296 297 295 296 297 293 297 296 296 294 296 294 294 292 287 290 286 285 288 290 290 289 288 288 291 294 291 291 292 294 297 298 298 299 300 301 303
301 301 300 300 300 300 299 292 289 288 282 292 294 295 298 299 293 298 296 291 290 287 291 288 284 292 294 292 289 288 287 287 291 292 291 289 289 293 294 296 297 297 298 299 300
300 300 299 300 298 297 294 291 296 295 284 289 294 294 294 296 295 295 296 295 292 290 291 288 291 294 291 290 287 288 287 288 288 291 291 288 287 290 294 296 296 297 298 299 299
299 299 298 299 293 294 290 295 297 296 281 286 290 288 288 290 291 296 298 296 292 287 289 290 294 291 292 288 290 284 290 289 288 286 282 289 281 289 293 294 296 297 298 298 299
299 298 298 298 293 288 291 295 297 293 273 285 284 292 289 285 287 290 294 293 288 289 288 287 288 287 286 289 290 286 290 288 287 284 284 285 280 286 292 290 293 296 298 298 300
298 298 296 294 293 292 295 296 295 280 272 275 281 280 281 285 286 288 288 292 292 286 287 288 292 287 288 291 291 290 286 284 284 283 278 283 284 285 289 293 296 298 297 298 299
297 297 294 294 287 294 296 292 280 272 277 273 274 278 278 278 280 281 281 283 281 279 281 286 287 289 286 283 285 287 283 278 275 275 275 286 283 286 293 294 294 295 296 298 297
296 295 294 293 295 296 294 285 271 271 272 277 276 277 274 278 277 278 277 276 282 279 278 277 279 288 289 284 284 283 283 280 274 277 280 286 279 287 294 295 296 295 295 296 297
295 293 291 293 295 296 286 271 268 272 275 274 275 272 273 275 275 275 275 276 277 277 269 272 276 286 285 286 287 283 279 286 280 282 277 283 284 290 292 292 293 292 294 293 292
291 290 288 293 295 290 281 272 273 277 277 276 270 273 269 272 272 273 273 277 275 277 278 276 271 282 283 284 285 284 286 278 280 273 273 279 282 285 290 291 289 289 289 290 291
289 284 289 293 293 285 272 272 274 279 279 274 273 272 272 271 272 272 273 276 278 276 277 277 273 276 281 279 280 281 279 282 282 280 277 276 282 286 286 287 287 287 288 288 289
287 279 290 292 280 280 274 275 278 277 279 277 277 275 272 273 271 271 271 274 278 278 272 276 273 270 273 283 283 281 281 282 277 277 280 280 282 287 287 287 288 287 287 288 288
283 282 289 288 272 273 275 275 276 275 276 275 274 276 276 272 269 272 273 277 279 277 274 275 270 266 270 279 278 276 278 281 281 281 278 277 279 287 287 286 287 286 286 286 286
283 276 282 284 281 275 272 272 272 278 276 277 275 276 274 272 274 270 271 276 278 277 281 278 271 268 264 269 273 270 275 277 278 274 277 279 282 285 285 285 285 285 285 285 284
283 277 278 274 275 275 275 273 272 271 276 277 274 274 273 269 270 270 273 274 276 278 277 275 267 269 271 272 272 273 274 275 274 279 275 279 281 286 288 284 283 284 284 282 281
280 278 280 277 277 275 274 272 271 273 274 272 272 274 274 271 272 270 272 272 271 275 274 275 267 270 266 272 273 272 275 276 277 278 279 280 281 284 284 284 281 281 280 278 278
287 286 281 277 276 274 273 273 273 275 276 277 275 274 273 274 277 278 278 277 276 273 272 272 270 267 264 271 272 268 274 275 276 275 274 275 277 281 281 278 278 278 277 276 277
Wind_Speed
21 21 20 20 20 20 20 19 19 17 17 16 17 16 15 16 18 13 15 9 6 9 5 4 6 5 4 7 12 8 10 18 26 30 28 20 15 14 19 21 23 15 18 4 4
20 20 21 22 22 21 21 20 20 19 19 18 19 18 13 14 15 19 13 6 6 11 11 12 11 9 6 6 8 11 15 25 24 25 25 23 21 17 15 15 20 21 18 5 5
21 21 21 22 22 22 22 22 21 21 20 19 19 17 9 12 11 6 4 8 11 15 12 10 10 10 13 12 13 11 23 21 22 25 23 25 21 22 20 26 26 23 22 21 17
20 20 21 22 23 23 24 24 24 22 21 20 18 11 5 7 10 2 7 10 11 11 10 9 10 9 10 17 17 20 22 21 23 23 24 23 22 23 26 28 25 24 21 20 17
23 24 25 25 26 27 27 27 26 26 24 20 17 3 5 8 14 8 8 11 11 10 14 14 15 16 14 9 14 25 23 23 22 20 22 23 25 24 28 22 25 26 24 20 20
22 23 24 25 26 28 28 28 25 23 21 19 16 5 6 15 1 9 11 10 11 14 13 14 7 15 15 18 17 10 12 20 22 21 21 20 24 23 19 21 29 27 25 22 23
22 23 24 25 27 28 30 28 28 26 21 17 12 9 12 24 1 8 12 10 11 11 13 13 14 9 3 15 17 18 22 22 23 21 22 13 27 32 26 24 27 24 24 23 24
24 25 26 27 28 30 30 29 29 24 19 11 8 9 12 2 7 10 12 8 8 11 10 4 10 13 19 13 17 16 20 19 8 16 15 11 31 15 13 23 27 27 25 22 23
25 26 27 28 29 29 30 30 23 8 3 7 7 6 12 3 6 13 14 8 9 8 7 4 7 10 11 16 17 18 21 23 23 15 6 19 28 15 8 10 20 20 20 18 18
25 27 29 29 29 27 33 24 5 5 5 5 2 4 7 5 1 3 10 10 6 9 6 8 8 12 14 16 21 18 26 23 24 16 15 19 31 23 23 17 17 18 18 18 19
27 29 31 30 26 27 21 5 6 5 6 9 5 10 7 4 3 4 7 13 9 12 12 16 10 23 27 27 29 27 29 32 28 14 7 19 30 28 24 25 23 22 22 23 23
27 29 30 28 18 22 17 9 8 3 18 13 20 23 21 22 18 11 4 13 13 22 20 13 25 35 25 24 26 28 30 33 25 21 16 18 34 29 27 27 27 25 25 26 26
27 28 27 27 11 14 11 15 8 10 8 8 6 4 18 21 20 27 18 16 27 25 29 30 35 21 23 24 26 30 30 29 27 18 17 16 33 34 28 31 30 29 28 25 26
28 27 23 26 2 14 9 17 11 7 6 7 8 11 21 28 9 14 14 27 29 32 29 26 40 26 22 28 27 26 27 24 21 12 17 9 21 25 19 22 18 17 21 22 22
29 26 19 15 6 12 16 16 11 3 5 13 11 12 32 23 25 6 8 8 32 30 15 25 21 19 26 36 19 23 8 17 17 19 19 23 11 18 3 10 11 15 18 19 16
29 24 15 10 9 16 17 16 3 3 4 12 16 29 32 22 24 25 26 11 14 16 24 35 16 8 20 17 20 8 10 2 5 10 14 31 19 33 18 24 20 11 6 7 2
29 20 12 8 11 19 15 6 2 6 16 13 24 31 28 25 22 21 25 20 13 10 13 20 30 26 8 10 6 19 13 8 7 7 14 20 18 30 3 5 14 11 4 3 2
26 12 10 9 14 14 9 1 10 10 8 22 22 26 20 22 19 25 23 20 14 22 12 9 11 24 22 26 14 22 22 11 15 15 17 16 12 26 16 15 15 2 6 5 5
18 6 11 12 15 11 4 11 4 8 15 16 21 18 18 22 17 24 21 10 12 19 13 10 11 13 13 12 21 16 21 29 13 11 4 8 15 20 16 15 5 6 2 8 8
6 4 13 17 12 7 6 9 4 10 14 14 17 13 17 18 21 21 16 11 14 18 16 9 20 15 7 5 15 20 6 14 10 9 14 12 20 14 7 9 6 6 8 10 10
4 3 11 16 6 6 9 5 4 11 14 9 14 16 20 20 22 18 10 18 22 24 21 14 7 16 8 5 13 10 12 8 5 12 11 10 9 6 6 8 7 8 9 9 10
4 3 9 11 8 5 8 7 8 10 14 7 10 15 18 21 17 18 21 21 25 19 22 12 9 13 26 24 5 5 11 19 9 10 11 15 11 6 9 10 9 9 9 10 11
3 3 5 8 6 8 9 6 5 9 11 7 10 15 16 17 16 19 20 27 19 20 14 7 9 14 18 8 17 9 22 21 19 17 12 10 13 8 9 10 9 9 10 11 12
2 3 3 3 2 8 10 6 9 9 9 9 16 15 15 21 20 14 24 16 23 19 27 12 8 12 13 20 18 21 19 22 15 12 16 19 22 10 9 9 8 8 10 11 13
4 3 3 5 4 9 8 7 12 10 6 12 13 17 21 20 19 22 23 24 25 20 13 11 14 17 19 26 25 23 21 18 16 15 18 23 23 23 8 9 8 8 9 12 14
3 3 1 8 6 8 5 4 10 11 14 15 14 24 22 19 20 21 19 19 20 20 15 14 15 15 22 23 24 23 19 21 18 18 23 25 24 12 10 8 9 10 10 13 14
2 1 3 5 5 6 3 5 15 18 8 17 19 20 18 19 18 18 18 21 22 22 21 17 12 14 21 19 18 13 8 7 7 11 8 7 13 15 7 11 13 10 11 13 13
Wind_Direction
20 14 11 4 0 356 352 348 344 342 340 331 327 321 316 314 307 267 250 246 199 177 203 194 200 199 210 233 240 243 246 242 245 251 266 266 254 262 279 242 260 257 264 283 86
18 9 2 357 353 350 346 342 337 337 334 330 324 318 313 316 294 270 247 215 205 170 206 209 211 200 216 241 207 216 235 238 249 265 275 280 286 275 255 246 243 243 238 161 190
12 4 355 349 345 341 337 334 331 327 327 326 323 315 312 308 282 259 17 190 195 184 225 235 252 213 231 227 220 229 246 254 250 259 275 283 278 276 268 258 257 249 240 225 204
9 3 358 351 345 341 336 331 325 321 319 318 323 309 312 280 280 83 141 166 162 194 197 194 206 212 233 225 226 256 254 256 258 272 282 276 278 263 260 255 262 269 268 257 205
3 358 354 348 343 337 333 326 320 314 313 311 315 274 254 235 253 139 150 149 171 195 208 206 215 224 243 239 250 246 254 270 267 265 269 275 261 263 259 255 259 259 259 269 257
1 356 350 344 338 334 328 321 316 309 299 295 298 199 246 252 89 168 180 175 195 201 217 224 230 237 275 262 254 276 266 268 268 268 268 262 267 256 248 245 251 256 254 245 241
360 355 349 343 338 333 326 318 316 309 301 288 266 219 246 243 252 188 180 204 204 215 221 225 248 236 249 258 258 269 270 269 258 255 247 270 271 249 249 245 249 252 251 247 249
360 355 350 345 340 332 323 316 312 302 291 278 208 221 258 21 265 214 194 199 212 219 242 245 232 254 258 272 276 259 258 263 269 235 227 189 259 267 279 225 244 249 254 251 247
2 357 351 347 342 334 327 317 309 292 194 161 176 227 263 100 221 222 207 211 195 200 215 215 197 223 230 236 261 237 260 259 260 212 191 204 263 263 259 263 245 245 250 253 251
359 354 347 344 343 340 331 317 293 158 152 191 274 257 240 296 158 200 200 207 190 178 187 210 217 225 214 221 239 243 247 252 258 271 220 242 255 265 276 270 255 261 264 253 246
359 354 347 344 347 346 340 339 347 192 353 258 309 270 319 9 206 215 194 191 192 201 206 195 213 222 219 218 237 249 261 270 271 274 268 262 269 264 263 261 258 252 250 249 250
358 354 349 350 356 358 26 61 52 309 301 275 269 276 281 280 271 259 184 204 201 221 211 194 226 232 232 235 233 240 250 257 267 260 250 265 271 273 266 264 257 254 250 249 247
358 355 354 345 347 7 47 33 343 330 269 312 291 334 20 321 282 280 220 230 242 241 232 225 242 235 233 231 233 232 239 249 252 258 259 261 276 274 263 247 245 249 252 253 248
358 355 354 335 293 348 14 348 331 323 291 306 33 38 359 334 268 335 294 244 245 247 251 246 252 256 242 234 225 239 233 252 261 264 250 223 277 271 281 276 259 247 246 248 249
356 356 354 18 340 347 330 325 317 223 289 20 10 347 336 342 319 330 345 278 250 251 253 234 252 245 234 234 209 238 267 242 243 235 253 251 250 281 293 268 253 253 243 246 255
354 359 349 6 349 332 327 319 223 230 264 354 344 338 339 355 341 356 346 281 284 276 271 267 245 288 265 258 225 227 222 142 247 233 234 243 231 277 257 257 267 289 288 304 10
352 356 5 2 338 326 322 297 230 16 345 347 332 336 331 347 342 352 342 329 305 291 261 273 250 248 241 239 247 204 191 205 212 208 236 246 218 244 134 209 298 284 274 194 311
349 356 13 8 336 335 314 305 54 13 353 329 330 323 340 4 345 347 337 329 26 7 315 299 295 227 214 227 212 201 200 207 222 226 245 230 219 239 237 260 273 340 277 291 289
346 7 16 351 341 324 349 55 43 350 339 328 324 337 337 348 344 345 330 5 27 21 3 299 280 336 333 281 239 201 223 231 285 282 263 259 240 269 279 257 283 32 44 63 52
343 316 14 347 342 344 38 84 7 354 337 329 333 345 340 338 345 347 317 23 5 9 359 298 304 288 321 269 248 254 314 223 224 234 237 245 259 265 233 245 70 39 44 45 38
6 60 359 342 322 37 52 46 318 346 354 332 329 333 339 340 326 326 315 334 357 340 344 305 311 300 295 223 248 203 238 246 260 241 248 248 239 10 21 40 76 63 49 39 40
350 62 3 328 45 28 25 343 325 343 349 336 324 342 339 331 331 321 324 317 334 329 331 336 278 315 293 296 334 314 277 243 251 236 241 258 259 69 82 76 84 78 64 52 47
40 350 24 349 38 18 2 327 335 320 336 323 324 327 322 328 324 319 313 316 309 336 330 334 342 322 328 148 29 11 324 328 312 272 274 247 242 114 111 95 74 76 62 50 40
20 7 6 8 83 348 353 329 327 317 323 323 309 313 303 313 314 303 306 306 320 310 308 331 295 298 278 295 297 297 300 299 295 281 266 252 265 190 157 129 96 74 65 51 41
2 60 36 328 349 336 319 299 314 324 327 331 314 309 315 309 305 297 305 311 311 311 305 315 294 289 280 287 291 276 284 298 288 281 251 260 264 274 191 114 75 64 62 53 37
25 348 197 285 283 305 317 290 304 320 323 307 314 310 308 298 294 309 317 304 299 303 290 294 286 295 287 286 284 282 279 283 278 277 262 260 259 83 66 68 45 41 46 53 39
71 171 285 288 296 296 269 287 303 312 298 310 310 308 309 315 315 300 293 287 280 284 289 292 281 295 286 297 298 280 300 315 317 18 328 337 356 341 96 58 35 24 33 40 37